User: anonymous   Login
Location: Unspecified
(0.0000°N, 0.0000°E)
Time: 00:13:27
(UTC+00:00)
Language:

Kosmos-1725 - Orbit

View from above orbital plane
View from above orbital plane
View from above satellite
View from above satellite

Ground track
Ground track

The orbit data is extracted from the following two-line orbital elements,

1 16493U 86005A   18203.41511106 +.00000048 +00000-0 +34341-4 0  9996
2 16493 082.9337 163.6267 0021466 323.8324 151.2374 13.74640984675559
Epoch (UTC): 22 July 2018 09:57:45
Eccentricity: 0.0021466
inclination: 82.9337°
perigee height: 967 km
apogee height: 999 km
right ascension of ascending node: 163.6267°
argument of perigee: 323.8324°
revolutions per day: 13.74640984
mean anomaly at epoch: 151.2374°
orbit number at epoch: 67555

The dashed part of the orbit path shows where the satellite is in the earth's shadow,  

DLR